{"data":{"norad_id":69361,"intl_designator":"2026-123J","name":"STARLINK-37039","alt_names":[],"object_type":"PAYLOAD","status":"ACTIVE","operator":null,"country":"US","launch_date":"2026-06-04","launch_site_code":"AFETR","launch_vehicle":null,"mission":null,"orbit_class":"UNKNOWN","rcs_meters":null,"size_class":null,"mass_kg":null,"dimensions":null,"purposes":["comms"],"wikipedia_slug":null,"has_3d_model":false,"image_url":null,"decayed_at":null,"tle_current":{"epoch":"2026-09-20T02:42:15.247008Z","epoch_age_seconds":62515,"freshness":"FRESH","line1":"1 69361U 26123J   26263.11267647  .00020517  00000+0  61652-3 0  9999","line2":"2 69361  53.1576 143.3203 0001357  90.5343 269.5815 15.34409207 16817","mean_motion":15.34409207,"eccentricity":0.0001357,"inclination_deg":53.1576,"raan_deg":143.3203,"arg_perigee_deg":90.5343,"mean_anomaly_deg":269.5815,"bstar":0.00061652,"rev_number":1681,"period_min":93.847194961468,"perigee_km":461.74757689249,"apogee_km":463.60417350682,"semimajor_km":6840.8128751997,"source":"CELESTRAK","updated_at":"2026-09-20T09:00:44.165872Z"}}}